PLEIADES 1B

Last updated on Mon Nov 03 2025 00:02:35 GMT+0000 (Coordinated Universal Time)

1 39019U 12068A 25306.48848426 .00000507 00000+0 11876-3 0 9996 2 39019 98.1836 19.7662 0001404 94.7145 265.4215 14.58553026687802
UTC large
Height (km)
Speed (km/s)
/
Latitude / Longitude
Inclination (degrees)
Orbital Period (minutes)
Azimuth
Elevation
Range (km)
Doppler Factor

Next 0 passes for location: London (51.5072 / 0.1276)

Sorry there are no passes over London.